TimeEDT,TemperatureF,Dew PointF,Humidity,Sea Level PressureIn,VisibilityMPH,Wind Direction,Wind SpeedMPH,Gust SpeedMPH,PrecipitationIn,Events,Conditions,WindDirDegrees,DateUTC
12:48 AM,82.4,75.2,79,30.05,10.0,East,8.1,-,N/A,,Mostly Cloudy,90,2013-09-05 04:48:00
12:53 AM,82.9,75.9,79,30.04,10.0,East,6.9,-,N/A,,Mostly Cloudy,80,2013-09-05 04:53:00
1:20 AM,82.4,75.2,79,30.03,10.0,East,8.1,-,N/A,,Mostly Cloudy,90,2013-09-05 05:20:00
1:53 AM,82.9,75.9,79,30.03,10.0,East,6.9,-,N/A,,Mostly Cloudy,80,2013-09-05 05:53:00
1:58 AM,82.4,75.2,79,30.03,5.0,NE,18.4,26.5,0.00,Rain,Rain,40,2013-09-05 05:58:00
2:05 AM,75.2,71.6,89,30.03,7.0,NNE,9.2,26.5,0.03,Rain-Thunderstorm,Light Thunderstorms and Rain,20,2013-09-05 06:05:00
2:32 AM,75.2,73.4,94,30.02,7.0,NNE,8.1,-,0.11,Rain-Thunderstorm,Light Thunderstorms and Rain,30,2013-09-05 06:32:00
2:53 AM,75.9,75.9,100,30.01,10.0,North,4.6,-,0.18,,Scattered Clouds,10,2013-09-05 06:53:00
3:53 AM,81.0,79.0,94,30.00,10.0,East,8.1,-,0.02,,Partly Cloudy,80,2013-09-05 07:53:00
4:53 AM,81.0,77.0,88,30.00,10.0,East,8.1,-,N/A,,Partly Cloudy,90,2013-09-05 08:53:00
5:53 AM,82.0,77.0,85,30.01,10.0,ESE,8.1,-,N/A,,Partly Cloudy,120,2013-09-05 09:53:00
6:53 AM,82.0,75.0,79,30.02,10.0,East,11.5,-,N/A,,Scattered Clouds,100,2013-09-05 10:53:00
7:53 AM,82.9,75.9,79,30.03,10.0,ESE,10.4,-,N/A,,Partly Cloudy,110,2013-09-05 11:53:00
8:53 AM,84.9,75.9,74,30.04,10.0,ESE,10.4,-,N/A,,Partly Cloudy,110,2013-09-05 12:53:00
9:53 AM,86.0,75.9,72,30.05,10.0,East,13.8,-,N/A,,Scattered Clouds,100,2013-09-05 13:53:00
10:12 AM,84.2,75.2,74,30.06,10.0,ESE,10.4,-,N/A,,Mostly Cloudy,120,2013-09-05 14:12:00
10:28 AM,86.0,75.2,70,30.06,10.0,ESE,11.5,-,N/A,,Scattered Clouds,110,2013-09-05 14:28:00
10:53 AM,84.9,77.0,77,30.07,10.0,East,11.5,-,0.00,Rain,Light Rain,90,2013-09-05 14:53:00
11:53 AM,87.1,75.9,69,30.06,10.0,East,10.4,-,0.02,,Scattered Clouds,100,2013-09-05 15:53:00
12:53 PM,88.0,77.0,70,30.06,10.0,ESE,12.7,20.7,N/A,,Scattered Clouds,110,2013-09-05 16:53:00
1:53 PM,89.1,75.9,65,30.04,10.0,ESE,12.7,19.6,N/A,,Scattered Clouds,120,2013-09-05 17:53:00
2:53 PM,86.0,75.9,72,30.03,10.0,East,11.5,-,N/A,,Scattered Clouds,90,2013-09-05 18:53:00
3:53 PM,84.9,75.9,74,30.01,10.0,East,9.2,-,N/A,,Scattered Clouds,100,2013-09-05 19:53:00
4:53 PM,84.9,75.0,72,30.00,10.0,ESE,10.4,-,N/A,,Partly Cloudy,110,2013-09-05 20:53:00
5:53 PM,86.0,75.0,70,30.01,10.0,East,10.4,-,N/A,,Partly Cloudy,80,2013-09-05 21:53:00
6:53 PM,84.0,75.0,74,30.00,10.0,East,8.1,-,N/A,,Partly Cloudy,80,2013-09-05 22:53:00
7:53 PM,82.9,75.9,79,30.00,10.0,East,10.4,-,N/A,,Partly Cloudy,90,2013-09-05 23:53:00
8:53 PM,82.9,75.9,79,30.02,10.0,ENE,6.9,-,N/A,,Clear,60,2013-09-06 00:53:00
9:53 PM,82.9,75.9,79,30.04,10.0,East,6.9,-,N/A,,Partly Cloudy,80,2013-09-06 01:53:00
10:53 PM,82.9,75.0,77,30.04,10.0,ENE,5.8,-,N/A,,Partly Cloudy,70,2013-09-06 02:53:00
11:53 PM,82.9,75.9,79,30.04,10.0,ENE,6.9,-,N/A,,Scattered Clouds,70,2013-09-06 03:53:00